Weather History for KHQM - September, 2012

Change the Weather History Date:

Wednesday, September 5, 2012

  Actual Average Record
Temperature  
Mean Temperature 57 °F 60 °F  
Max Temperature 68 °F 68 °F 89 °F (1955)
Min Temperature 48 °F 52 °F 40 °F (1969)
Degree Days  
Heating Degree Days 8 5  
Month to date heating degree days 25  
Cooling Degree Days 0 0  
Month to date cooling degree days 0  
Year to date cooling degree days 16  
Growing Degree Days 7 (Base 50)    
Moisture  
Dew Point 53 °F    
Average Humidity 94    
Maximum Humidity 100    
Minimum Humidity 73    
Precipitation  
Precipitation 0.00 in 0.07 in 1.40 in (1984)
Month to date precipitation 0.32  
Year to date precipitation 37.93  
Sea Level Pressure  
Sea Level Pressure 30.07 in    
Wind  
Wind Speed 2 mph (SSW)    
Max Wind Speed 17 mph    
Max Gust Speed -    
Visibility 5 miles    
Events Fog    
T = Trace of Precipitation, MM = Missing Value Source: NWS Daily Summary

Daily Weather History Graph

Daily Weather History Graph

Search for Another Location

Airport or City:

Trip Planner

Search our weather history database for the weather conditions in past years. The results will help you decide how hot, cold, wet, or windy it might be!

Date:

Astronomy

Sep. 05, 2012 Rise Set
Actual Time 6:41 AM PDT 7:46 PM PDT
Civil Twilight 6:09 AM PDT 8:17 PM PDT
Nautical Twilight 5:32 AM PDT 8:54 PM PDT
Astronomical Twilight 4:52 AM PDT 9:34 PM PDT
Moon 9:54 PM PDT (9/5) 12:14 PM PDT (9/5)
Length of Visible Light 14h 07m
Length of Day
13h 05m
Waning Gibbous, 75% of the Moon is Illuminated
Sep 5
Waning Gibbous
Sep 8
Last Quarter
Sep 15
New
Sep 22
First Quarter
Sep 29
Full

Hourly Weather History & Observations

Time (PDT) Temp. Dew Point Humidity Pressure Visibility Wind Dir Wind Speed Gust Speed Precip Events Conditions
12:16 AM 53.6 °F 51.8 °F 94% 30.12 in 1.8 mi NW 3.5 mph - N/A   Overcast
12:27 AM 53.6 °F 51.8 °F 94% 30.12 in 0.8 mi Calm Calm - N/A   Overcast
12:37 AM 53.6 °F 51.8 °F 94% 30.12 in 1.2 mi Calm Calm - N/A   Overcast
12:53 AM 52.0 °F 52.0 °F 100% 30.13 in 1.2 mi Calm Calm - N/A   Overcast
1:00 AM 51.8 °F 51.8 °F 100% 30.12 in 2.0 mi Calm Calm - N/A   Overcast
1:07 AM 51.8 °F 51.8 °F 100% 30.12 in 9.0 mi Calm Calm - N/A   Mostly Cloudy
1:16 AM 51.8 °F 51.8 °F 100% 30.12 in 10.0 mi Calm Calm - N/A   Scattered Clouds
1:50 AM 53.6 °F 51.8 °F 94% 30.11 in 10.0 mi Calm Calm - N/A   Mostly Cloudy
1:53 AM 53.1 °F 52.0 °F 96% 30.12 in 7.0 mi Calm Calm - N/A   Mostly Cloudy
2:07 AM 53.6 °F 51.8 °F 94% 30.11 in 2.0 mi Calm Calm - N/A   Overcast
2:14 AM 53.6 °F 51.8 °F 94% 30.11 in 1.0 mi Calm Calm - N/A   Overcast
2:21 AM 53.6 °F 51.8 °F 94% 30.11 in 0.8 mi Calm Calm - N/A   Mist
2:53 AM 53.1 °F 53.1 °F 100% 30.11 in 0.8 mi Calm Calm - N/A   Mist
3:21 AM 53.6 °F 53.6 °F 100% 30.10 in 0.2 mi North 3.5 mph - N/A Fog Fog
3:33 AM 53.6 °F 53.6 °F 100% 30.10 in 0.2 mi Calm Calm - N/A Fog Fog
3:53 AM 53.1 °F 52.0 °F 96% 30.11 in 0.2 mi North 3.5 mph - N/A Fog Fog
4:33 AM 51.8 °F 51.8 °F 100% 30.09 in 1.0 mi Calm Calm - N/A   Mist
4:40 AM 51.8 °F 51.8 °F 100% 30.09 in 1.2 mi Calm Calm - N/A   Overcast
4:53 AM 52.0 °F 51.1 °F 97% 30.11 in 0.8 mi Calm Calm - N/A   Mist
5:03 AM 51.8 °F 51.8 °F 100% 30.10 in 0.2 mi Calm Calm - N/A Fog Fog
5:19 AM 51.8 °F 51.8 °F 100% 30.09 in 1.0 mi Calm Calm - N/A   Mist
5:23 AM 51.8 °F 50.0 °F 94% 30.09 in 4.0 mi Calm Calm - N/A   Overcast
5:35 AM 51.8 °F 50.0 °F 94% 30.09 in 2.5 mi Calm Calm - N/A   Overcast
5:43 AM 50.0 °F 48.2 °F 94% 30.09 in 10.0 mi Calm Calm - N/A   Overcast
5:53 AM 50.0 °F 48.9 °F 96% 30.10 in 10.0 mi Calm Calm - N/A   Mostly Cloudy
6:01 AM 48.2 °F 48.2 °F 100% 30.09 in 10.0 mi Calm Calm - N/A   Scattered Clouds
6:53 AM 48.9 °F 48.0 °F 97% 30.09 in 9.0 mi Calm Calm - N/A   Clear
7:09 AM 48.2 °F 48.2 °F 100% 30.09 in 8.0 mi Calm Calm - N/A   Partly Cloudy
7:24 AM 50.0 °F 48.2 °F 94% 30.09 in 9.0 mi Calm Calm - N/A   Mostly Cloudy
7:51 AM 51.8 °F 51.8 °F 100% 30.09 in 1.8 mi Calm Calm - N/A   Overcast
7:53 AM 51.1 °F 51.1 °F 100% 30.10 in 1.0 mi Calm Calm - N/A   Overcast
7:57 AM 51.8 °F 51.8 °F 100% 30.08 in 0.8 mi Calm Calm - N/A   Overcast
8:18 AM 51.8 °F 51.8 °F 100% 30.08 in 2.0 mi NE 3.5 mph - N/A   Mostly Cloudy
8:25 AM 51.8 °F 51.8 °F 100% 30.08 in 4.0 mi East 3.5 mph - N/A   Overcast
8:29 AM 53.6 °F 51.8 °F 94% 30.08 in 1.5 mi East 3.5 mph - N/A   Overcast
8:38 AM 51.8 °F 51.8 °F 100% 30.08 in 0.2 mi ESE 3.5 mph - N/A Fog Fog
8:53 AM 53.1 °F 52.0 °F 96% 30.09 in 0.2 mi East 3.5 mph - N/A Fog Fog
9:07 AM 53.6 °F 53.6 °F 100% 30.08 in 0.8 mi ESE 4.6 mph - N/A   Overcast
9:21 AM 53.6 °F 53.6 °F 100% 30.08 in 1.0 mi ESE 3.5 mph - N/A   Overcast
9:30 AM 53.6 °F 53.6 °F 100% 30.08 in 0.8 mi Calm Calm - N/A   Overcast
9:39 AM 53.6 °F 53.6 °F 100% 30.08 in 1.8 mi Calm Calm - N/A   Overcast
9:53 AM 54.0 °F 54.0 °F 100% 30.09 in 1.0 mi SE 3.5 mph - N/A   Overcast
10:10 AM 55.4 °F 53.6 °F 94% 30.07 in 3.0 mi Calm Calm - N/A   Mostly Cloudy
10:28 AM 57.2 °F 55.4 °F 94% 30.07 in 8.0 mi South 3.5 mph - N/A   Partly Cloudy
10:53 AM 60.1 °F 55.9 °F 86% 30.07 in 10.0 mi SW 4.6 mph - N/A   Clear
11:53 AM 66.0 °F 57.0 °F 73% 30.06 in 10.0 mi WSW 8.1 mph - N/A   Clear
12:53 PM 66.0 °F 57.9 °F 75% 30.04 in 10.0 mi SW 13.8 mph - N/A   Clear
1:53 PM 66.0 °F 57.0 °F 73% 30.03 in 10.0 mi WSW 13.8 mph - N/A   Clear
2:53 PM 64.9 °F 57.0 °F 75% 30.02 in 10.0 mi SW 16.1 mph - N/A   Clear
3:53 PM 63.0 °F 55.9 °F 78% 30.01 in 10.0 mi SW 17.3 mph - N/A   Clear
4:53 PM 61.0 °F 55.9 °F 83% 29.99 in 10.0 mi SW 15.0 mph - N/A   Clear
5:31 PM 60.8 °F 55.4 °F 82% 29.98 in 10.0 mi WSW 12.7 mph - N/A   Partly Cloudy
5:53 PM 60.1 °F 55.0 °F 83% 29.99 in 10.0 mi WSW 10.4 mph - N/A   Mostly Cloudy
6:53 PM 59.0 °F 55.0 °F 87% 29.98 in 10.0 mi WSW 6.9 mph - N/A   Overcast
7:53 PM 57.9 °F 55.0 °F 90% 29.98 in 10.0 mi WSW 6.9 mph - N/A   Overcast
8:53 PM 57.9 °F 55.0 °F 90% 29.98 in 10.0 mi WSW 5.8 mph - N/A   Overcast
9:53 PM 57.9 °F 55.0 °F 90% 29.98 in 9.0 mi Calm Calm - N/A   Overcast
10:53 PM 57.9 °F 55.0 °F 90% 29.98 in 9.0 mi SW 4.6 mph - N/A   Overcast
11:53 PM 57.0 °F 55.0 °F 93% 29.98 in 8.0 mi SW 3.5 mph - N/A   Overcast